Weather reports worldwide

Advertisment
Bedford, United Kingdom (3560): temperature & dewpoint: 13.06.2018 00:00:00 - 19.06.2018 00:00:00 (BST)Bedford, United Kingdom (3560): temperature -20cm & temperature -100cm: 13.06.2018 00:00:00 - 19.06.2018 00:00:00 (BST)Bedford, United Kingdom (3560): wind speed & gusts: 13.06.2018 00:00:00 - 19.06.2018 00:00:00 (BST)Bedford, United Kingdom (3560): wind direction: 13.06.2018 00:00:00 - 19.06.2018 00:00:00 (BST)Bedford, United Kingdom (3560): reduced air pressure: 13.06.2018 00:00:00 - 19.06.2018 00:00:00 (BST)Bedford, United Kingdom (3560): visibility: 13.06.2018 00:00:00 - 19.06.2018 00:00:00 (BST)Bedford, United Kingdom (3560): precipitation: 13.06.2018 00:00:00 - 19.06.2018 00:00:00 (BST)
Date & Time tt [°C] td [°C] tt -20cm [°C] tt -100cm [°C] ff [km/h] ff [kn] fx [km/h] fx [kn] dd ppp [hPa] vv [km] rr [mm]
19.06.2018 00:00:00 - - - - - - - - - - - 0,0
18.06.2018 23:00:00 17,6 15,2 - - 21 11 - - WSW 1019,4 50 0,0
18.06.2018 22:00:00 18,1 14,9 - - 24 13 - - WSW 1019,0 50 0,0
18.06.2018 21:00:00 18,8 14,7 - - 16 9 - - SW 1018,3 50 0,0
18.06.2018 20:00:00 19,4 14,6 - - 24 13 - - WSW 1018,1 50 0,0
18.06.2018 19:00:00 19,6 14,1 - - 26 14 - - SW 1018,0 50 0,0
18.06.2018 18:00:00 21,6 14,8 - - 18 10 - - WSW 1017,4 29 0,0
18.06.2018 17:00:00 21,1 13,2 - - 22 12 - - WSW 1017,6 50 0,0
18.06.2018 16:00:00 22,8 13,0 - - 29 16 46 25 W 1017,3 40 0,0
18.06.2018 15:00:00 24,0 13,3 - - 22 12 - - W 1017,4 40 0,0
18.06.2018 14:00:00 22,5 11,0 - - 22 12 - - W 1017,5 40 0,0
18.06.2018 13:00:00 22,0 12,2 - - 24 13 - - W 1017,8 50 0,0
18.06.2018 12:00:00 21,0 11,9 - - 24 13 - - W 1017,8 40 0,0
18.06.2018 11:00:00 19,2 11,4 - - 26 14 - - WSW 1017,8 21 0,0
18.06.2018 10:00:00 17,9 12,4 16,7 14,7 21 11 - - WSW 1017,7 35 0,0
18.06.2018 09:00:00 16,5 13,3 - - 16 9 - - WSW 1017,7 45 0,0
18.06.2018 08:00:00 14,5 12,5 - - 18 10 - - WSW 1017,1 35 0,0
18.06.2018 07:00:00 13,8 12,3 - - 15 8 - - WSW 1016,8 26 0,0
18.06.2018 06:00:00 13,6 12,3 - - 13 7 - - WSW 1016,3 40 0,0
18.06.2018 05:00:00 14,0 12,4 - - 15 8 - - SW 1016,1 50 0,0
18.06.2018 04:00:00 14,7 13,3 - - 15 8 - - WSW 1015,9 50 0,0
18.06.2018 03:00:00 14,7 14,0 - - 13 7 - - SW 1015,6 50 0,0
18.06.2018 02:00:00 14,8 14,3 - - 16 9 - - SSW 1015,7 9 0,0
18.06.2018 01:00:00 14,8 14,3 - - 15 8 - - SW 1015,6 14 0,0
18.06.2018 00:00:00 14,6 14,1 - - 18 10 - - SSW 1015,6 10 0,0
17.06.2018 23:00:00 14,9 13,6 - - 13 7 - - SSW 1015,9 6 0,0
17.06.2018 22:00:00 15,4 13,1 - - 15 8 - - SSW 1015,6 25 0,0
17.06.2018 21:00:00 15,6 12,8 - - 16 9 - - SSW 1015,3 50 0,0
17.06.2018 20:00:00 15,7 12,4 - - 21 11 - - SSW 1015,3 45 0,0
17.06.2018 19:00:00 16,1 12,4 - - 21 11 - - SSW 1015,0 45 0,0
17.06.2018 18:00:00 16,3 12,2 - - 21 11 - - SSW 1014,8 50 0,0
17.06.2018 17:00:00 16,9 11,5 - - 21 11 - - SSW 1015,0 40 0,0
17.06.2018 16:00:00 17,1 10,7 - - 18 10 - - SW 1015,4 40 0,0
17.06.2018 15:00:00 16,9 11,5 - - 15 8 - - WSW 1015,4 35 0,0
17.06.2018 14:00:00 15,6 10,3 - - 21 11 - - WSW 1015,6 50 0,0
17.06.2018 13:00:00 16,7 10,1 - - 18 10 - - SW 1015,3 50 0,0
17.06.2018 12:00:00 15,8 10,5 - - 15 8 - - SW 1015,4 40 0,0
17.06.2018 11:00:00 15,7 11,1 - - 16 9 - - WSW 1015,3 30 0,0
17.06.2018 10:00:00 15,7 10,9 17,0 14,7 15 8 - - WSW 1015,4 35 0,0
17.06.2018 09:00:00 13,9 11,2 - - 16 9 - - SW 1015,7 28 0,0
17.06.2018 08:00:00 13,2 11,5 - - 13 7 - - SW 1015,4 22 0,0
17.06.2018 07:00:00 12,7 10,9 - - 9 5 - - SW 1014,8 30 0,0
17.06.2018 06:00:00 11,9 10,3 - - 11 6 - - SW 1014,4 26 0,0
17.06.2018 05:00:00 11,7 9,9 - - 11 6 - - SW 1014,1 30 0,0
17.06.2018 04:00:00 11,8 9,7 - - 9 5 - - WSW 1013,8 35 0,0
17.06.2018 03:00:00 11,4 9,3 - - 11 6 - - WSW 1013,8 45 0,0
17.06.2018 02:00:00 11,1 9,2 - - 13 7 - - WSW 1014,0 40 0,0
17.06.2018 01:00:00 11,3 9,1 - - 13 7 - - WSW 1013,9 50 0,0
17.06.2018 00:00:00 11,8 9,0 - - 11 6 - - WSW 1013,4 50 0,0
16.06.2018 23:00:00 12,6 8,9 - - 15 8 - - WSW 1013,1 50 0,0
16.06.2018 22:00:00 13,4 8,8 - - 13 7 - - WSW 1012,6 50 0,0
16.06.2018 21:00:00 15,6 10,2 - - 21 11 - - SW 1011,8 50 0,0
16.06.2018 20:00:00 16,9 12,3 - - 24 13 - - SSW 1011,1 50 0,0
16.06.2018 19:00:00 17,8 12,3 - - 22 12 - - SSW 1010,9 50 0,0
16.06.2018 18:00:00 16,4 12,2 - - 21 11 - - SSW 1011,8 50 0,0
16.06.2018 17:00:00 17,0 11,7 - - 24 13 - - SSW 1011,8 50 0,0
16.06.2018 16:00:00 17,4 11,2 - - 22 12 - - SSW 1012,0 45 0,0
16.06.2018 15:00:00 17,5 10,6 - - 22 12 - - SW 1012,4 40 0,0
16.06.2018 14:00:00 18,0 10,6 - - 18 10 - - SW 1012,4 40 0,0
16.06.2018 13:00:00 17,5 9,2 - - 22 12 - - SW 1012,8 25 0,0
16.06.2018 12:00:00 17,9 9,6 - - 21 11 - - SW 1013,3 45 0,0
16.06.2018 11:00:00 17,1 9,1 - - 16 9 - - SW 1013,6 50 0,0
16.06.2018 10:00:00 15,3 9,7 17,4 14,7 18 10 - - SSW 1014,0 45 0,0
16.06.2018 09:00:00 13,9 9,7 - - 11 6 - - WSW 1014,3 40 0,0
16.06.2018 08:00:00 13,0 9,2 - - 9 5 - - WSW 1014,5 50 0,0
16.06.2018 07:00:00 12,0 9,1 - - 8 4 - - SW 1014,3 50 0,0
16.06.2018 06:00:00 11,8 8,8 - - 9 5 - - SW 1014,4 50 0,0
16.06.2018 05:00:00 11,8 8,9 - - 8 4 - - WSW 1014,4 50 0,0
16.06.2018 04:00:00 11,8 9,0 - - 8 4 - - SW 1014,4 50 0,0
16.06.2018 03:00:00 12,3 9,2 - - 8 4 - - WSW 1015,0 50 0,0
16.06.2018 02:00:00 12,5 9,1 - - 8 4 - - WSW 1015,2 50 0,0
16.06.2018 01:00:00 12,7 9,3 - - 9 5 - - WSW 1015,6 50 0,0
16.06.2018 00:00:00 12,9 9,1 - - 8 4 - - WSW 1015,4 50 0,0
15.06.2018 23:00:00 13,2 8,8 - - 8 4 - - WSW 1015,6 50 0,0
15.06.2018 22:00:00 13,7 8,6 - - 5 3 - - SW 1015,7 50 0,0
15.06.2018 21:00:00 15,0 8,6 - - 8 4 - - WSW 1015,5 50 0,0
15.06.2018 20:00:00 17,0 8,7 - - 11 6 - - W 1015,3 50 0,0
15.06.2018 19:00:00 18,5 8,3 - - 15 8 - - WNW 1015,2 50 0,0
15.06.2018 18:00:00 19,5 8,7 - - 21 11 - - W 1015,4 40 0,0
15.06.2018 17:00:00 19,6 8,4 - - 18 10 - - W 1015,5 50 0,0
15.06.2018 16:00:00 19,9 8,3 - - 18 10 - - W 1015,8 50 0,0
15.06.2018 15:00:00 19,7 8,6 - - 16 9 - - WSW 1015,9 21 0,0
15.06.2018 14:00:00 19,5 8,6 - - 16 9 - - WSW 1016,1 45 0,0
15.06.2018 13:00:00 20,0 10,1 - - 15 8 - - SW 1015,9 45 0,0
15.06.2018 12:00:00 19,1 8,4 - - 13 7 - - WSW 1016,3 45 0,0
15.06.2018 11:00:00 18,6 8,9 - - 11 6 - - SSW 1016,3 45 0,0
15.06.2018 10:00:00 17,2 8,1 17,2 14,7 5 3 - - S 1016,5 35 0,0
15.06.2018 09:00:00 15,5 10,5 - - 5 3 - - SSW 1016,8 29 0,0
15.06.2018 08:00:00 13,4 10,0 - - 9 5 - - W 1016,9 21 0,0
15.06.2018 07:00:00 10,5 8,2 - - 11 6 - - W 1016,7 25 0,0
15.06.2018 06:00:00 9,0 6,8 - - 9 5 - - W 1016,5 40 0,0
15.06.2018 05:00:00 10,0 6,8 - - 13 7 - - W 1016,1 28 0,0
15.06.2018 04:00:00 9,9 6,7 - - 9 5 - - WSW 1016,1 45 0,0
15.06.2018 03:00:00 10,6 6,8 - - 9 5 - - WSW 1016,2 50 0,0
15.06.2018 02:00:00 11,3 7,0 - - 8 4 - - WSW 1016,1 50 0,0
15.06.2018 01:00:00 11,0 6,9 - - 8 4 - - WSW 1016,0 50 0,0
15.06.2018 00:00:00 11,3 7,3 - - 5 3 - - SW 1015,9 50 0,0
14.06.2018 23:00:00 13,2 8,2 - - 8 4 - - WSW 1015,5 45 0,0
14.06.2018 22:00:00 14,5 8,5 - - 8 4 - - W 1015,0 45 0,0
14.06.2018 21:00:00 17,0 8,3 - - 9 5 - - W 1014,2 45 0,0
14.06.2018 20:00:00 19,1 8,3 - - 11 6 - - WNW 1013,4 35 0,0
14.06.2018 19:00:00 19,4 8,5 - - 11 6 - - WNW 1012,9 45 0,0
14.06.2018 18:00:00 20,7 7,9 - - 21 11 - - W 1012,2 50 0,0
14.06.2018 17:00:00 20,9 8,5 - - 22 12 - - WNW 1011,7 23 0,0
14.06.2018 16:00:00 20,6 8,3 - - 28 15 - - W 1011,1 40 0,0
14.06.2018 15:00:00 20,4 9,2 - - 24 13 46 25 WNW 1010,5 45 0,0
14.06.2018 14:00:00 20,4 8,7 - - 29 16 52 28 W 1009,8 30 0,0
14.06.2018 13:00:00 19,2 10,6 - - 28 15 48 26 W 1009,0 30 0,0
14.06.2018 12:00:00 18,1 13,1 - - 22 12 46 25 WSW 1008,3 25 0,0
14.06.2018 11:00:00 17,4 13,8 - - 29 16 54 29 SW 1007,3 50 0,0
14.06.2018 10:00:00 15,6 13,6 17,7 14,7 29 16 50 27 SSW 1007,1 18 0,0
14.06.2018 09:00:00 15,4 12,7 - - 31 17 57 31 SSW 1007,0 30 0,0
14.06.2018 08:00:00 14,8 11,8 - - 31 17 52 28 SSW 1007,3 30 0,0
14.06.2018 07:00:00 14,5 11,6 - - 31 17 52 28 SSW 1007,4 30 0,0
14.06.2018 06:00:00 13,8 11,2 - - 34 18 48 26 SSW 1008,1 50 0,0
14.06.2018 05:00:00 13,6 11,3 - - 26 14 - - SSW 1009,2 50 0,0
14.06.2018 04:00:00 13,4 11,7 - - 21 11 - - SSW 1009,6 25 0,2
14.06.2018 03:00:00 13,3 11,9 - - 22 12 - - SSW 1010,5 12 0,2
14.06.2018 02:00:00 14,0 12,6 - - 18 10 - - SSW 1011,5 8 0,0
14.06.2018 01:00:00 14,6 12,5 - - 21 11 - - SSW 1012,5 9 0,0
14.06.2018 00:00:00 14,9 12,0 - - 18 10 - - SSW 1013,1 19 0,0
13.06.2018 23:00:00 15,3 11,5 - - 21 11 - - SSW 1013,7 28 0,0
13.06.2018 22:00:00 15,8 10,8 - - 18 10 - - SSW 1014,0 50 0,0
13.06.2018 21:00:00 16,6 10,8 - - 21 11 - - SSW 1014,1 50 0,0
13.06.2018 20:00:00 17,9 10,9 - - 21 11 - - SW 1014,3 50 0,0
13.06.2018 19:00:00 19,2 11,3 - - 21 11 - - SW 1014,5 50 0,0
13.06.2018 18:00:00 19,6 10,9 - - 21 11 - - SW 1014,7 45 0,0
13.06.2018 17:00:00 20,4 10,6 - - 18 10 - - SW 1015,0 40 0,0
13.06.2018 16:00:00 20,9 11,2 - - 22 12 - - SSW 1015,5 40 0,0
13.06.2018 15:00:00 19,9 11,0 - - 22 12 - - SSW 1016,3 50 0,0
13.06.2018 14:00:00 20,9 12,3 - - 16 9 - - SW 1016,6 40 0,0
13.06.2018 13:00:00 20,9 12,7 - - - - - - - 1017,4 40 0,0
13.06.2018 12:00:00 19,5 11,1 - - 16 9 - - W 1018,2 28 0,0
13.06.2018 11:00:00 18,6 11,5 - - 15 8 - - SW 1018,2 50 0,0
13.06.2018 10:00:00 17,2 10,8 17,7 14,5 13 7 - - SW 1018,7 45 0,0
13.06.2018 09:00:00 15,0 10,5 - - 9 5 - - SSW 1019,0 40 0,0
13.06.2018 08:00:00 13,2 10,4 - - 11 6 - - SW 1019,4 50 0,0
13.06.2018 07:00:00 10,5 9,6 - - 5 3 - - SSW 1019,6 40 0,0
13.06.2018 06:00:00 9,4 8,9 - - 5 3 - - S 1019,5 25 0,0
13.06.2018 05:00:00 8,9 8,4 - - 8 4 - - WSW 1019,9 45 0,0
13.06.2018 04:00:00 8,2 7,7 - - 5 3 - - SW 1020,0 40 0,0
13.06.2018 03:00:00 7,9 7,3 - - 8 4 - - WSW 1020,0 40 0,0
13.06.2018 02:00:00 7,3 6,8 - - 4 2 - - WSW 1020,3 50 0,0
13.06.2018 01:00:00 7,9 7,3 - - 4 2 - - E 1020,4 50 0,0
13.06.2018 00:00:00 8,9 8,3 - - 2 1 - - NNE 1020,5 50 0,0

tt = temperature
td = dewpoint
tt -20cm = temperature -20cm
tt -100cm = temperature -100cm
ff = wind speed
fx = gusts
dd = wind direction
ppp = reduced air pressure
vv = visibility
rr = precipitation

Next stations